Dauntless Aviation
Greetings, Guest! To participate, [sign up for a free account] or [log in]
Airports Europe France
LFIY

Saint Jean d'Angely

FRANCE

Airport Info
Edit

Location

Latitude / Longitude: 45°57'59"N / 0°31'31"W
  45°57.984'N / 0°31.518'W
  45.9664 / -0.5253

Runway Information

Runway 10 /28

Dimensions: 2789 x 164 ft.
Surface: U
 
Runway 10
Runway 28
Latitude: 45.966636 45.965728
Longitude: -0.528086 -0.518369
Elevation: 243 ft. 243 ft.
Runway true heading: 95.7 275.7
 

Instrument Procedures

IAPs (Instrument Approach Procedures)

  Visual Approch Chart
Satellite photo at:
Airport distance calculator
From:
Weather Reports

METAR

LFBG
20.0nm SE
LFBG 042200Z AUTO 35009KT 320V020 CAVOK 22/16 Q1019
LFBH
27.2nm W
LFBH 042200Z AUTO 35009KT CAVOK 20/14 Q1020

TAF

LFBG
20.0nm SE
TAF LFBG 041700Z 0418/0518 32008KT CAVOK TEMPO 0503/0510 5000 SHRA SCT030 BKN080CB
LFBH
27.2nm W
TAF LFBH 041700Z 0418/0518 28012KT CAVOK BECMG 0419/0421 35015KT BECMG 0501/0503 FEW030CB BKN080TCU TEMPO 0503/0509 VRB15G35KT 5000 -TSRA SCT030CB BKN050 BECMG 0509/0512 29015KT NSW BKN045 BECMG 0516/0518 CAVOK
LFBU
34.5nm E
TAF LFBU 041700Z 0418/0518 04007KT CAVOK PROB30 TEMPO 0422/0512 VRB15G25KT 5000 -SHRA FEW050CB BKN080TCU BECMG 0510/0512 31010KT BECMG 0512/0515 SCT040
Safelog

 

Dauntless Aviation

© 2007-2015 Dauntless Aviation, all rights reserved
Information provided via PilotNav comes from a variety of official and unofficial data sources. As errors are possible, do not use PilotNav for primary flight planning purposes. Verify any information that you receive via PilotNav with current and canonical charts and other official documents. The material in this database is subject to database copyrights held by Dauntless Aviation and may not be copied without the express permission of Dauntless Aviation - licenses for use of part of all of this data are available for purchase; enquire via the Dauntless Aviation helpdesk. A number of mechanisms and markers exist in the database to protect against and identify infringement / copyright. Automated queries against this website are stictly prohibited, and all activity is logged and analyzed.